User: anonymous
Location: Caltech
(34.1382°N, 118.1253°W)
Time: 21:18:27
(UTC-07:00)
Language:

RS-15 - Orbit

View from above orbital plane
View from above orbital plane
View from above satellite
View from above satellite

Ground track
Ground track

The orbit data is extracted from the following two-line orbital elements,

1 23439U 94085A   14242.54572990 -.00000039  00000-0  10000-3 0  7031
2 23439 064.8168 071.4853 0146213 068.1651 293.4754 11.27561815810389
Epoch (UTC): 30 August 2014 13:05:51
Eccentricity: 0.0146213
inclination: 64.8168°
perigee height: 1899 km
apogee height: 2145 km
right ascension of ascending node: 71.4853°
argument of perigee: 68.1651°
revolutions per day: 11.27561815
mean anomaly at epoch: 293.4754°
orbit number at epoch: 81038

The dashed part of the orbit path shows where the satellite is in the earth's shadow,  

DLR